AirNav   $300 off a Bose A20
 
 606 users online  

KNRS Imperial Beach Naval Outlying Field (Ream Field)
Imperial Beach, California, USA

GOING TO IMPERIAL BEACH?


FAA INFORMATION EFFECTIVE 18 JULY 2019

Location

FAA Identifier: NRS
Lat/Long: 32-33-58.1638N / 117-06-48.6837W
32-33.969397N / 117-06.811395W
32.5661566 / -117.1135233
(estimated)
Elevation: 23.6 ft. / 7.2 m (surveyed)
Variation: 11E (2020)
From city: 1 mile S of IMPERIAL BEACH, CA
Time zone: UTC -7 (UTC -8 during Standard Time)
Zip code: 91932

Airport Operations

Airport use: Private use. Permission required prior to landing
Activation date: 02/1944
Control tower: yes
ARTCC: LOS ANGELES CENTER
FSS: SAN DIEGO FLIGHT SERVICE STATION
FSS-SAN DIEGO SAN-NOTAM NRS
NOTAMs facility: SAN (NOTAM-D service available)
Attendance: 
OPR 1600-0630Z MON-THU (1500-0600Z DT) AND 1600-0200Z++ FRI. CLSD FR 0200Z++ DAY PRIOR TIL 1600Z++ DAY FLW GOVT HOL; EXC PRE-COORD FLT OF OPR NECESSITY. CTC NOLF ATC DSN 577-9414/9415 FOR OPR INQUIRIES.
Segmented circle: no
Lights: AVBL ONLY DURING HRS OF OPERATION.
Beacon: white-white-green (lighted military airport)
Operates sunset to sunrise.

Airport Communications

ATIS: 276.2
WX ASOS: PHONE 619-437-9890
IMPERIAL BEACH GROUND: 285.575 [1600-0630Z MON-THU (1500-0600Z DT) AND 1600-0200Z++ FRI. CLSD FR 0200Z++ DAY PRIOR TIL 1600Z++ DAY FLW GOVT HOL.]
IMPERIAL BEACH TOWER: 120.65 239.25 [1600-0630Z MON-THU (1500-0600Z DT) AND 1600-0200Z++ FRI. CLSD FR 0200Z++ DAY PRIOR TIL 1600Z++ DAY FLW GOVT HOL.]
SOCAL APPROACH: 125.15
SOCAL DEPARTURE: 125.15
EMERG: 243.0
RADAR: 318.8
WX ASOS at SDM (7 nm E): 132.35 (619-661-8297)
WX ASOS at SAN (11 nm N): PHONE 619-296-8934
WX ASOS at MYF (15 nm N): 126.9 (858-576-4337)
WX AWOS-3P at SEE (17 nm NE): 125.45 (619-449-1228)
  • ATCT/GCA/ATIS OPR PUBLISHED HRS EXC PRE-COORD FLT OF OPR NECESSITY.
  • FOR CLNC DEL WHEN ATCT CLSD CALL SOCAL APCH (800) 448-3724.
  • ILS/RADAR - RADAR - SEE TERMINAL FLIP FOR RADAR MINIMA.

Nearby radio navigation aids

VOR radial/distance  VOR name  Freq  Var
PGYr235/7.3POGGI VORTAC109.8014E
TIJr267/8.2TIJUANA VOR/DME116.5014E
MZBr141/14.1MISSION BAY VORTAC117.8015E

Airport Services

Runway Information

Runway 8/26

Dimensions: 2240 x 151 ft. / 683 x 46 m
Surface: concrete
Weight bearing capacity: 
PCN 6 /R/C/W/T
RUNWAY 8  RUNWAY 26
Latitude: 32-34.018072N32-33.921433N
Longitude: 117-06.827898W117-06.406738W
Elevation: 23.5 ft.21.2 ft.
Traffic pattern: leftleft
Touchdown point: yes, no lightsyes, no lights

Runway 9/27

Dimensions: 4997 x 336 ft. / 1523 x 102 m
Surface: PEM
Weight bearing capacity: 
PCN 8 /F/A/W/T
Runway edge lights: high intensity
RUNWAY 9  RUNWAY 27
Latitude: 32-34.076683N32-33.861790N
Longitude: 117-07.368155W117-06.428677W
Elevation: 8.2 ft.19.8 ft.
Traffic pattern: leftleft
Touchdown point: yes, no lightsyes, no lights

Airport Ownership and Management from official FAA records

Ownership: U.S. Navy
Owner: US NAVY
OCEANOGRAPHIC OFC - CODE 3142
WASHINGTON, DC 20373

Additional Remarks

RSTD - OFFL BUS ONLY - PPR F/W AND NON-TENANT ACFT, CTC NASNI ODO DSN 735-8233/8234, C619-545-8233/8234. NORTH ISLAND TENANT ACFT AND COAST GUARD HAVE PRIORITY FOR LCL PAT OPR.
CAUTION: EXTV COPTER TRNG.
MISC: RWY 08-26 AVBL FOR DAY AND NGT COPTER USE ONLY (NGT AND SVFR USE AT PILOTS OWN RISK).
FUEL: J5 (AVAILABLE 1100-2100 MON-THU; 1000-1800 FRI).

Instrument Procedures

NOTE: All procedures below are presented as PDF files. If you need a reader for these files, you should download the free Adobe Reader.

NOT FOR NAVIGATION. Please procure official charts for flight.
FAA instrument procedures published for use from 18 July 2019 at 0901Z to 16 August 2019 at 0900Z.

 
IAPs - Instrument Approach Procedures
COPTER TACAN RWY 27   download (94KB)
NOTE: Special Take-Off Minimums/Departure Procedures apply   download (174KB)

Other nearby airports with instrument procedures:

KSDM - Brown Field Municipal Airport (7 nm E)
KNZY - North Island Naval Air Station (Halsey Field) (9 nm NW)
KSAN - San Diego International Airport (11 nm N)
KMYF - Montgomery-Gibbs Executive Airport (15 nm N)
KSEE - Gillespie Field Airport (17 nm NE)
KNKX - Miramar MCAS (Joe Foss Field) Airport (18 nm N)
 
Loc | Ops | Rwys | IFR | FBO | Links
Com | Nav | Svcs | Stats | Notes
Area around KNRS (Imperial Beach Naval Outlying Field (Ream Field))
 
Road maps at: MapQuest Bing Google
 
Aerial photo
WARNING: Photo may not be current or correct
Aerial photo of KNRS (Imperial Beach Naval Outlying Field (Ream Field))
Photo taken 02-Feb-2016
looking south.

Do you have a better or more recent aerial photo of Imperial Beach Naval Outlying Field (Ream Field) that you would like to share? If so, please send us your photo.

 
Sectional chart

 
Airport distance calculator
Flying to Imperial Beach Naval Outlying Field (Ream Field)? Find the distance to fly.

From to KNRS

Sunrise and sunset
Times for 20-Jul-2019
 Local
(UTC-7)
 Zulu
(UTC)
Morning civil twilight05:2812:28
Sunrise05:5612:56
Sunset19:5402:54
Evening civil twilight20:2103:21

Current date and time
Zulu (UTC)  20-Jul-2019 11:02:03
Local (UTC-7)  20-Jul-2019 04:02:03
 
METAR
KNRS 201056Z AUTO 10SM OVC017 A2994 RMK AO2 SLP139 $
KSDM 
6nm E 
201053Z AUTO 00000KT 10SM OVC013 17/14 A2994 RMK AO2 SLP133 T01670139
MMTJ 
8nm E 
201040Z 36005KT 8SM OVC013 17/15 A2996 RMK 8/5// HZY
KNZY 
10nm NW 
201052Z AUTO 31004KT 10SM OVC019 19/14 A2993 RMK AO2 SLP134 T01890144
KSAN 
11nm N 
201051Z 03003KT 10SM OVC019 19/14 A2995 RMK AO2 SLP141 T01940144 $
KMYF 
15nm N 
201053Z AUTO VRB03KT 10SM OVC015 18/14 A2994 RMK AO2 SLP135 T01780139
KSEE 
17nm NE 
201055Z AUTO 31003KT 10SM OVC013 18/14 A2993 RMK AO2
KNKX 
18nm N 
201055Z 31004KT 10SM OVC014 19/14 A2994 RMK AO2 SLP132 T01940139
TAF
MMTJ 
8nm E 
201002Z 2012/2118 00000KT P6SM OVC012 TX23/2019Z TN16/2012Z TEMPO 2012/2016 4SM HZ BKN008 FM201800 32010KT P6SM SCT250 FM210600 27005KT 6SM HZ BKN012 FM210900 00000KT 3SM BR HZ BKN008 TEMPO 2111/2115 3SM BR HZ BKN007 FM211700 30010KT P6SM SCT250
KNZY 
10nm NW 
2007/2107 VRB06KT 9999 BKN012 QNH2990INS FM201800 30011KT 9999 SCT018 QNH2988INS BECMG 2102/2103 27007KT 9999 BKN014 QNH2989INS T17/2013Z T21/2021Z FS30058
KSAN 
11nm N 
200847Z 2009/2112 VRB04KT P6SM OVC017 FM201000 VRB03KT P6SM OVC015 FM201700 28007KT P6SM SCT018 FM210330 VRB04KT P6SM OVC012
KNKX 
18nm N 
2009/2109 VRB05KT 9999 OVC013 QNH2990INS BECMG 2015/2017 29007KT 9999 SKC QNH2985INS T15/2013Z T27/2021Z
NOTAMs
Click for the latest NOTAMs
NOTAMs are issued by the DoD/FAA and will open in a separate window not controlled by AirNav.

 

 
 

Would you like to see your business listed on this page?

 If your business provides an interesting product or service to pilots, flight crews, aircraft, or users of the Imperial Beach Naval Outlying Field (Ream Field), you should consider listing it here.  To start the listing process, click on the button below
 
Add a business
 

Other Pages about Imperial Beach Naval Outlying Field (Ream Field)

Update a link
 
Copyright © AirNav, LLC. All rights reserved. Privacy Policy  Contact